Date,TemperatureHighF,TemperatureAvgF,TemperatureLowF,DewpointHighF,DewpointAvgF,DewpointLowF,HumidityHigh,HumidityAvg,HumidityLow,PressureMaxIn,PressureMinIn,WindSpeedMaxMPH,WindSpeedAvgMPH,GustSpeedMaxMPH,PrecipitationSumIn
2013-6-1,92,79,68,76,70,65,92,76,56,30.03,29.90,7,2,14,0.01
2013-6-2,88,77,69,75,70,66,94,78,62,29.91,29.82,6,3,21,0.21
2013-6-3,80,71,64,73,68,62,94,91,74,29.92,29.80,7,1,21,0.41
2013-6-4,79,66,56,62,54,47,94,67,40,30.11,29.92,7,1,14,0.00
2013-6-5,80,66,52,61,56,50,94,72,49,30.18,30.05,6,2,14,0.00
2013-6-6,74,67,59,66,61,56,94,82,69,30.09,29.88,6,2,15,0.18
2013-6-7,71,68,66,69,67,64,94,94,94,29.88,29.56,6,2,15,3.44
2013-6-8,82,70,63,69,65,62,94,85,59,30.07,29.65,5,1,12,0.00
2013-6-9,82,72,62,72,66,60,94,84,67,30.20,30.07,5,1,10,0.00
2013-6-10,79,73,69,75,70,67,94,93,88,30.10,29.78,8,3,20,1.22
2013-6-11,84,74,67,71,67,65,94,80,62,29.82,29.74,8,2,20,0.00
2013-6-12,88,77,66,75,69,63,93,79,60,29.85,29.77,5,1,13,0.00
2013-6-13,86,74,69,75,70,61,94,85,62,29.81,29.43,13,3,33,0.51
2013-6-14,79,68,59,61,58,54,94,72,49,29.94,29.55,8,2,21,0.11
2013-6-15,84,71,57,64,60,55,94,71,42,30.06,29.94,5,1,12,0.00
2013-6-16,84,73,61,73,66,58,94,80,61,30.01,29.85,5,1,12,0.00
2013-6-17,88,76,66,76,70,64,93,81,60,29.94,29.86,6,1,15,0.00
2013-6-18,79,70,61,74,68,60,94,91,82,29.91,29.78,8,1,18,1.13
2013-6-19,79,69,60,65,61,57,94,79,49,30.15,29.87,8,2,18,0.00
2013-6-20,80,70,58,66,61,57,94,77,54,30.27,30.15,7,2,13,0.00
2013-6-21,81,69,55,67,60,54,94,75,46,30.30,30.23,8,1,12,0.00
2013-6-22,84,74,61,72,66,59,94,79,64,30.25,30.13,7,2,15,0.00
2013-6-23,83,77,72,77,73,70,94,89,80,30.18,30.05,5,1,10,0.10
2013-6-24,93,78,70,80,73,68,94,84,58,30.11,29.97,7,1,20,0.04
2013-6-25,94,80,67,77,72,65,94,76,52,30.03,29.87,11,1,28,0.14
2013-6-26,92,77,67,79,72,65,94,85,62,29.92,29.79,5,1,12,0.14
2013-6-27,84,75,69,77,72,67,94,89,78,29.82,29.59,9,2,18,0.03
2013-6-28,89,76,70,76,71,68,94,85,62,29.62,29.47,8,2,15,0.03
2013-6-29,88,77,66,74,69,64,94,79,50,29.65,29.51,6,1,13,0.01
2013-6-30,86,78,74,77,74,72,94,90,73,29.84,29.74,4,1,10,0.16